Location: Spruce Knob
(38.6995°N, 79.5330°W)
Time: 20:04:04
(UTC-04:00)

A-11 Canister half - Pass Details

Date: 01 February 2022
Orbit: 1513 x 1686 km, 47.2° (Epoch: 26 May)

Event Time Altitude Azimuth Distance (km) Brightness Sun altitude
Rises 21:43:53 0° 300° (WNW) 4,684 12.2 -47.4°
Reaches altitude 10° 21:47:01 10° 296° (WNW) 3,687 11.5 -48.0°
Enters shadow 21:52:12 36° 278° (W) 2,229 10.0 -49.0°
Maximum altitude 21:55:55 55° 222° (SW) 1,767 - -49.6°
Drops below altitude 10° 22:04:49 10° 147° (SSE) 3,677 - -51.2°
Sets 22:07:56 0° 143° (SE) 4,670 - -51.8°
